User: anonymous   Login
Location: Dunedin
(45.8670°S, 170.5000°E)
Time: 00:17:39
(UTC+13:00)
Language:

Cosmos 841 Rocket - Orbit

View from above orbital plane
View from above orbital plane
View from above satellite
View from above satellite

Ground track
Ground track

The orbit data is extracted from the following two-line orbital elements,

1  9023U 76069B   19292.65998482 +.00000060 +00000-0 +27694-4 0  9994
2  9023 074.0423 319.6643 0018963 273.9593 085.9394 14.39633999267495
Epoch (UTC): 19 October 2019 15:50:22
Eccentricity: 0.0018963
inclination: 74.0423°
perigee height: 746 km
apogee height: 773 km
right ascension of ascending node: 319.6643°
argument of perigee: 273.9593°
revolutions per day: 14.39633999
mean anomaly at epoch: 85.9394°
orbit number at epoch: 26749

The dashed part of the orbit path shows where the satellite is in the earth's shadow,  

DLR